This demonstration page uses our WeatherBlox Daily Observations layout. Learn more.

Left ArrowRight Arrow

34.02893, -84.19858

Hourly Observations for November 27, 2022

Temp ( °F °C ) Dew Point ( °F °C ) Humidity (%) Winds ( mph kmh ) Pressure ( in mb ) Visibility ( mi km ) Precip ( " mm )
12:00 am 00:00 Cloudy with Light Rain 53 11.7 52 11.1 96 96 VRB 5 7 29.96 1015 2 3 0.02 0.51
12:17 am 00:17 Cloudy with Light Rain 53 11.7 52 11.1 96 96 VRB 5 7 29.95 1014 5 8 0.04 1.02
12:44 am 00:44 Cloudy with Light Rain 53 11.7 52 11.1 96 96 Calm 29.93 1014 9 14 0.04 1.02
12:53 am 00:53 Cloudy with Light Rain 53 11.7 52 11.1 96 96 undefined N/A 29.91 1013 8 13 0.05 1.27
1:18 am 01:18 Cloudy with Light Rain 53 11.7 52 11.1 96 96 undefined N/A 29.90 1012 6 10 0.02 0.51
1:53 am 01:53 Cloudy with Light Rain 54 12.2 53 11.7 97 97 VRB 7 11 29.85 1011 10 16 0.06 1.52
2:53 am 02:53 Cloudy with Rain 55 12.8 54 12.2 96 96 VRB 3 6 29.84 1011 4 6 0.08 2.03
3:16 am 03:16 Cloudy with Rain 55 12.8 54 12.2 96 96 Calm 29.85 1011 2 3 0.11 2.79
3:27 am 03:27 Cloudy with Light Rain 55 12.8 54 12.2 96 96 E 7 11 29.82 1010 3 5 0.14 3.56
3:44 am 03:44 Cloudy with Nearby Thunderstorms 55 12.8 54 12.2 96 96 VRB 6 9 29.79 1009 5 8 0.17 4.32
3:53 am 03:53 Cloudy with Light Rain 55 12.8 54 12.2 96 96 VRB 3 6 29.78 1009 5 8 0.18 4.57
4:53 am 04:53 Cloudy with Light Rain 56 13.3 55 12.8 97 97 VRB 3 6 29.75 1008 4 6 0.15 3.81
5:53 am 05:53 Cloudy with Light Rain 59 15 58 14.4 96 96 Calm 29.74 1007 10 16 0.02 0.51
6:03 am 06:03 Cloudy 60 15.6 59 15 96 96 SSE 8 13 29.75 1007 10 16 0.01 0.13
6:16 am 06:16 Cloudy 61 16.1 60 15.6 97 97 S 6 9 29.76 1008 10 16 0.01 0.13
6:56 am 06:56 Cloudy 61 16.1 61 16.1 100 100 Calm 29.76 1008 10 16 0.00 0.00
7:32 am 07:32 Cloudy 61 16.1 60 15.6 97 97 SE 3 6 29.75 1007 10 16 0.00 0.00
7:53 am 07:53 Cloudy 61 16.1 60 15.6 97 97 SSW 9 15 29.75 1008 10 16 0.00 0.00
8:12 am 08:12 Partly Cloudy 63 17.2 61 16.1 93 93 SW 12 19 29.75 1008 10 16 0.00 0.00
8:53 am 08:53 Sunny 64 17.8 58 14.4 80 80 SW 15 24 29.74 1007 10 16 0.00 0.00
9:53 am 09:53 Sunny 64 17.8 48 8.9 56 56 SW 21 33 29.76 1008 10 16 0.00 0.00
10:53 am 10:53 Sunny 64 17.8 48 8.9 56 56 WSW 13 20 29.78 1008 10 16 0.00 0.00
11:53 am 11:53 Sunny 64 17.8 46 7.8 52 52 SW 20 31 29.78 1009 10 16 0.00 0.00
12:53 pm 12:53 Mostly Cloudy 64 17.8 47 8.3 54 54 WSW 12 19 29.78 1009 10 16 0.00 0.00
1:53 pm 13:53 Mostly Sunny 63 17.2 47 8.3 56 56 WSW 12 19 29.76 1008 10 16 0.00 0.00
2:53 pm 14:53 Sunny 65 18.3 45 7.2 48 48 WSW 12 19 29.75 1008 10 16 0.00 0.00
3:53 pm 15:53 Mostly Sunny 63 17.2 44 6.7 50 50 SW 15 24 29.77 1008 10 16 0.00 0.00
4:53 pm 16:53 Mostly Sunny 62 16.7 44 6.7 52 52 W 9 15 29.78 1009 10 16 0.00 0.00
5:53 pm 17:53 Clear 60 15.6 44 6.7 55 55 WSW 7 11 29.80 1009 10 16 0.00 0.00
6:53 pm 18:53 Clear 58 14.4 43 6.1 57 57 W 7 11 29.83 1010 10 16 0.00 0.00
7:53 pm 19:53 Mostly Clear 56 13.3 43 6.1 62 62 W 7 11 29.83 1010 10 16 0.00 0.00
8:53 pm 20:53 Cloudy 58 14.4 44 6.7 60 60 WSW 7 11 29.85 1011 10 16 0.00 0.00
9:53 pm 21:53 Cloudy 58 14.4 44 6.7 60 60 WSW 8 13 29.86 1011 10 16 0.00 0.00
10:53 pm 22:53 Cloudy 58 14.4 45 7.2 62 62 SW 7 11 29.86 1011 10 16 0.00 0.00
11:53 pm 23:53 Cloudy 55 12.8 45 7.2 69 69 SW 6 9 29.86 1011 10 16 0.00 0.00

Powered by AerisWeather